Wind_Speed
75 80 80 79 85 80 81 74 78 77 79 75 73 78 78 74 77 78 73 78 72 71 77 77 74 76 72 75 71 66 61 70 71 64 63 70 69 68 65 69 73 69 71 74 76
73 77 78 79 83 88 88 87 82 80 83 81 79 75 76 79 80 76 78 79 75 73 78 81 77 72 71 73 71 69 68 70 69 66 67 70 73 70 66 69 73 74 74 71 67
74 76 78 78 82 84 88 89 86 90 88 87 84 84 79 76 74 74 83 81 78 75 77 76 75 74 75 78 77 72 63 71 71 70 70 71 74 72 69 73 75 72 69 65 66
67 71 78 81 84 83 86 87 86 85 93 92 92 93 91 81 74 76 79 78 78 80 76 79 79 76 73 74 77 70 67 70 69 73 72 74 72 71 73 74 75 72 64 65 69
65 68 72 77 81 84 86 88 91 90 89 89 96 94 95 86 75 85 83 82 79 78 80 82 79 78 73 72 75 68 71 70 72 73 76 76 70 70 75 74 73 66 63 68 71
57 63 69 72 75 79 83 88 90 92 92 91 91 91 91 86 90 90 88 84 81 85 83 79 80 85 76 76 74 73 71 71 73 75 77 75 70 75 70 74 67 67 67 69 70
45 51 60 70 75 79 80 81 84 88 89 91 91 92 88 81 91 92 96 89 88 82 87 87 91 89 78 77 74 74 73 72 71 75 73 74 71 71 71 70 67 64 63 66 68
48 51 53 57 63 72 80 84 86 86 87 86 91 92 86 88 92 89 94 90 88 87 87 89 89 83 71 69 68 69 72 75 79 77 76 70 68 67 62 60 61 63 65 66 60
60 63 65 67 67 68 70 75 83 87 88 89 87 85 80 86 90 93 92 93 98 92 90 90 88 79 66 63 67 72 79 77 80 75 72 59 65 64 61 61 61 62 65 61 61
69 72 73 75 76 78 78 77 78 80 84 88 86 85 78 81 89 89 91 91 93 90 89 84 81 74 66 62 69 79 64 68 75 71 65 60 59 59 59 61 60 63 57 58 62
73 78 82 85 86 87 87 90 85 80 81 81 81 75 79 77 84 86 89 90 91 90 84 85 82 67 65 72 72 66 60 67 76 67 62 59 58 59 60 60 58 55 53 58 66
83 89 92 97 101 102 99 97 94 89 82 82 81 75 71 73 74 81 86 86 85 82 85 86 74 70 77 71 74 66 60 65 71 66 60 57 54 57 57 52 48 48 54 60 66
94 101 111 110 109 110 111 109 103 99 92 87 84 80 79 77 74 75 79 82 81 82 80 79 72 80 77 78 73 66 62 66 68 60 56 56 56 57 52 48 45 50 57 62 70
106 113 114 114 114 116 114 105 107 109 101 91 93 89 88 87 79 81 74 74 70 67 72 65 71 75 76 72 68 65 67 69 66 63 59 57 54 53 50 41 49 55 58 64 66
106 101 94 90 89 87 92 102 104 107 101 102 102 94 95 89 82 85 83 80 75 71 71 60 59 60 65 65 70 67 74 69 67 63 59 51 43 53 47 53 56 58 59 59 66
81 74 73 71 72 74 78 83 93 101 103 108 107 109 91 94 90 88 83 81 80 76 73 71 69 68 62 72 70 70 69 66 62 57 47 51 49 50 47 53 53 53 54 59 63
61 57 56 60 59 64 69 75 79 87 109 116 109 105 97 97 98 94 92 80 76 72 65 65 58 55 54 56 58 57 54 52 48 46 47 55 45 42 44 47 48 52 54 52 50
51 47 48 51 52 57 60 62 66 77 107 111 109 106 104 105 104 98 92 82 75 75 76 65 60 51 49 50 47 49 51 47 47 49 49 50 36 37 43 44 46 47 41 43 39
46 42 43 43 45 49 51 55 63 72 79 99 112 104 109 105 105 98 94 90 81 79 77 71 62 62 62 61 63 57 44 50 50 49 43 32 40 39 38 39 46 42 34 33 29
45 40 37 39 40 42 45 49 55 61 68 91 115 110 109 113 108 102 100 94 88 86 83 78 74 72 70 67 63 58 56 57 47 40 37 41 41 40 37 38 43 28 30 26 28
42 37 34 35 35 37 40 43 48 51 61 77 100 114 106 107 109 103 102 98 94 88 82 80 76 75 73 62 61 58 48 43 43 41 42 43 39 40 34 41 29 24 25 23 22
39 35 32 31 31 32 34 37 41 47 60 70 83 100 109 105 105 103 106 100 94 90 84 80 75 72 60 70 70 63 57 55 48 48 46 46 45 39 37 36 24 22 20 20 20
35 31 29 26 27 29 30 33 38 46 57 64 76 88 99 111 107 107 103 102 96 93 88 84 76 76 67 63 62 61 49 47 47 46 47 47 45 43 33 27 23 19 17 16 13
31 26 27 23 25 27 27 30 37 44 52 60 68 78 88 106 111 109 107 102 101 95 90 86 78 72 60 51 49 47 53 54 52 50 47 41 43 28 30 31 22 19 16 12 7
32 24 21 20 22 23 24 26 31 38 45 52 60 71 78 90 107 110 107 104 102 97 93 86 78 73 66 62 56 48 44 45 46 43 42 37 25 31 32 29 22 19 15 9 7
31 25 17 14 19 20 20 23 28 34 39 45 53 61 71 82 93 109 107 105 106 99 95 89 85 76 71 66 60 52 45 34 29 30 35 36 29 34 30 28 24 20 13 8 6
33 24 17 12 13 17 16 20 26 30 34 39 45 55 64 73 81 98 105 107 108 104 97 92 87 79 73 70 65 59 41 29 26 30 29 25 31 32 31 31 26 20 13 9 3
Wind_Direction
239 239 242 242 241 237 236 237 241 246 243 240 246 249 251 250 246 251 256 256 259 258 255 256 257 257 261 266 261 266 278 283 277 279 277 284 291 288 294 297 297 295 297 300 300
246 243 243 246 244 245 243 237 239 240 239 241 246 245 247 250 251 252 253 255 256 256 255 257 258 259 261 261 262 269 276 277 276 276 280 285 291 291 293 294 293 297 296 297 296
248 249 247 248 246 246 247 248 245 243 239 243 239 241 246 246 248 251 253 254 254 252 253 253 256 256 258 257 262 266 273 273 271 276 280 284 288 290 290 294 293 295 297 294 296
249 252 251 251 251 249 251 251 253 252 242 244 241 244 241 240 244 250 250 248 250 252 251 253 254 255 256 259 265 271 273 269 273 277 279 280 284 287 289 290 293 296 293 296 297
253 253 253 252 253 254 255 254 252 249 251 249 243 244 242 242 241 249 245 245 247 251 252 251 251 251 252 257 265 272 269 275 274 275 274 279 282 283 288 290 293 292 294 296 294
254 253 253 252 253 254 255 255 254 255 255 252 249 248 251 244 249 252 251 247 247 247 249 247 249 252 257 259 263 268 269 269 270 269 272 277 283 285 283 290 291 291 294 294 296
263 258 256 254 252 251 251 253 253 253 254 256 253 251 250 250 248 253 252 256 254 247 245 248 251 251 253 256 261 264 266 267 266 266 273 277 283 281 284 288 288 289 291 293 295
266 265 264 263 262 257 254 252 250 251 253 254 254 254 253 250 250 252 251 250 252 252 250 252 253 254 258 258 259 261 263 262 266 271 272 281 277 278 285 286 285 289 290 293 296
277 275 272 267 263 259 260 259 255 251 250 251 250 253 252 250 251 247 250 251 251 252 255 256 260 264 263 256 257 258 256 260 265 271 277 274 273 277 279 282 286 289 291 294 295
276 271 268 266 265 265 261 258 258 258 254 250 249 249 246 248 251 249 250 249 250 252 253 257 259 257 255 255 250 252 260 265 265 268 270 268 272 275 278 283 285 289 292 293 297
280 278 272 261 261 261 258 258 255 253 254 255 250 245 246 246 249 250 250 247 250 251 253 252 251 255 248 247 249 258 260 259 262 263 264 268 270 276 279 283 288 292 294 295 297
280 272 265 261 258 252 249 249 251 251 249 250 250 248 243 239 242 246 247 246 245 246 247 250 256 245 243 249 253 256 259 256 258 260 263 266 270 273 279 285 288 292 291 295 300
277 265 256 255 254 250 246 243 242 242 241 246 244 243 242 238 235 240 245 246 244 244 247 248 243 243 245 248 256 256 255 254 257 260 263 268 271 277 282 287 288 285 290 297 301
276 271 271 270 266 262 257 251 245 241 239 237 239 237 235 239 234 236 240 243 246 248 246 242 244 245 245 248 250 251 248 252 256 262 264 270 278 283 286 285 280 285 290 297 304
286 285 279 273 268 262 255 250 247 242 236 233 235 231 234 237 233 235 236 238 240 241 244 244 238 237 239 240 241 241 249 253 257 264 269 277 271 273 275 276 283 287 293 301 306
288 281 275 269 264 258 253 246 240 239 235 230 233 234 228 231 233 231 237 237 239 238 241 246 246 245 241 240 244 245 252 255 261 267 269 266 261 265 268 277 285 288 296 298 305
291 283 275 269 262 255 250 245 237 231 230 229 229 232 230 228 229 229 231 232 237 242 244 244 246 246 239 242 242 242 246 251 255 255 252 257 263 265 266 276 286 290 298 304 304
296 286 276 271 265 257 250 244 237 231 227 227 228 228 227 228 227 228 230 230 230 236 236 234 238 235 241 243 242 238 238 238 241 243 245 263 268 267 276 280 287 296 303 298 292
301 290 282 275 264 257 248 242 235 229 224 223 226 226 225 226 227 225 227 227 225 229 231 235 231 233 232 230 232 238 236 239 241 246 251 261 266 267 271 287 289 301 287 281 289
306 295 285 276 266 256 249 240 235 230 224 220 221 222 222 223 224 223 223 225 225 226 227 227 229 231 228 232 235 238 237 239 245 248 253 255 259 268 279 291 296 285 270 283 294
310 298 287 277 267 256 247 240 235 227 224 224 223 223 220 222 222 223 223 222 224 225 227 229 233 235 235 232 237 238 243 247 248 250 252 252 260 267 290 291 290 257 263 287 297
313 300 289 279 270 255 245 236 229 223 222 221 220 223 222 221 222 223 223 223 223 224 226 228 229 233 233 229 232 236 232 234 235 242 245 250 263 278 285 276 246 245 260 287 293
318 303 292 281 269 254 243 231 223 221 220 220 219 218 218 218 220 222 223 224 223 222 222 225 226 230 230 232 239 241 241 242 243 249 252 256 266 278 256 232 224 237 253 276 289
324 311 297 284 268 256 243 231 222 220 219 217 218 220 216 215 217 220 222 222 224 224 223 224 224 231 233 235 237 238 240 242 244 249 258 267 272 234 213 217 216 225 242 262 303
333 322 304 287 269 259 244 235 227 222 219 219 218 217 218 215 215 217 220 221 223 223 223 224 222 223 227 228 227 226 230 235 243 244 253 244 223 204 206 212 211 219 232 248 288
339 333 320 295 269 261 245 235 231 224 221 219 218 218 216 217 213 215 216 219 222 223 222 221 222 221 223 226 227 225 226 226 234 243 240 237 207 197 203 210 211 216 220 240 273
346 344 335 314 281 266 248 232 230 227 221 220 217 217 216 216 213 213 215 215 219 222 223 220 220 221 221 224 225 224 224 216 230 235 235 227 194 202 198 212 209 211 213 227 255
Height
10772 10774 10777 10781 10783 10789 10792 10794 10796 10800 10804 10807 10811 10813 10819 10825 10829 10834 10834 10823 10832 10840 10836 10837 10842 10844 10852 10850 10854 10860 10865 10860 10853 10856 10857 10849 10854 10853 10855 10851 10845 10843 10838 10833 10826
10761 10765 10767 10768 10771 10772 10775 10780 10783 10786 10790 10794 10798 10802 10806 10810 10816 10825 10807 10817 10821 10827 10825 10822 10829 10837 10840 10837 10846 10852 10857 10849 10843 10845 10846 10842 10844 10844 10845 10841 10835 10836 10831 10823 10816
10750 10751 10753 10755 10758 10759 10760 10763 10769 10772 10776 10781 10785 10790 10795 10800 10806 10809 10800 10802 10808 10813 10813 10811 10816 10826 10828 10827 10830 10842 10849 10837 10835 10833 10836 10837 10831 10831 10835 10830 10825 10825 10819 10810 10805
10738 10739 10741 10741 10743 10744 10748 10751 10753 10755 10760 10763 10768 10774 10781 10791 10803 10794 10786 10788 10791 10798 10801 10800 10804 10812 10817 10820 10813 10831 10833 10828 10829 10823 10824 10826 10827 10822 10818 10821 10815 10812 10806 10799 10793
10726 10726 10726 10725 10726 10728 10729 10732 10735 10737 10741 10746 10751 10757 10765 10782 10798 10775 10766 10773 10780 10783 10786 10789 10793 10795 10805 10807 10805 10821 10816 10819 10822 10816 10809 10814 10818 10814 10808 10808 10807 10801 10796 10790 10783
10711 10710 10711 10711 10712 10712 10712 10712 10714 10718 10722 10727 10735 10740 10750 10778 10758 10745 10751 10763 10769 10771 10772 10778 10776 10779 10799 10799 10801 10802 10808 10810 10808 10803 10801 10802 10809 10805 10794 10798 10795 10792 10786 10779 10772
10701 10699 10697 10696 10694 10694 10695 10696 10696 10700 10703 10706 10714 10720 10739 10758 10730 10727 10745 10749 10746 10754 10758 10760 10756 10769 10786 10789 10792 10796 10800 10799 10793 10786 10797 10794 10805 10792 10789 10791 10783 10782 10775 10771 10763
10688 10685 10682 10681 10679 10677 10675 10676 10678 10679 10683 10688 10694 10699 10724 10713 10715 10725 10711 10728 10725 10729 10736 10737 10739 10759 10779 10777 10781 10785 10789 10787 10772 10781 10782 10794 10783 10782 10783 10781 10774 10771 10767 10761 10753
10669 10665 10662 10661 10658 10658 10657 10656 10656 10661 10665 10667 10675 10684 10703 10694 10692 10680 10702 10713 10704 10710 10722 10720 10730 10754 10761 10766 10769 10772 10770 10775 10767 10772 10777 10784 10768 10775 10773 10773 10764 10762 10757 10749 10744
10646 10642 10638 10634 10632 10631 10631 10632 10634 10638 10642 10648 10655 10664 10675 10667 10666 10672 10683 10690 10689 10697 10702 10713 10721 10737 10748 10750 10755 10745 10763 10765 10754 10764 10769 10771 10766 10766 10764 10763 10757 10752 10746 10740 10736
10618 10611 10605 10602 10600 10600 10601 10600 10607 10614 10624 10629 10640 10645 10648 10652 10654 10653 10660 10668 10671 10681 10695 10692 10699 10731 10731 10720 10730 10743 10753 10750 10737 10754 10758 10761 10762 10756 10754 10751 10747 10742 10735 10730 10726
10583 10573 10567 10562 10557 10557 10561 10562 10576 10586 10601 10609 10616 10627 10624 10625 10633 10634 10640 10648 10655 10665 10664 10674 10707 10707 10695 10713 10719 10732 10739 10732 10730 10739 10750 10753 10754 10749 10745 10740 10738 10733 10728 10723 10717
10541 10529 10519 10515 10514 10516 10521 10528 10543 10553 10570 10580 10592 10605 10599 10603 10615 10616 10619 10626 10635 10643 10657 10669 10682 10676 10688 10695 10710 10720 10722 10716 10716 10732 10740 10742 10741 10742 10736 10734 10732 10725 10720 10716 10709
10490 10484 10479 10474 10475 10475 10482 10500 10505 10521 10536 10560 10554 10570 10574 10574 10596 10590 10604 10607 10618 10629 10633 10652 10656 10668 10677 10691 10695 10701 10699 10698 10709 10720 10728 10733 10731 10727 10726 10729 10724 10718 10716 10710 10703
10451 10439 10428 10424 10421 10428 10436 10443 10469 10483 10506 10513 10520 10536 10547 10562 10577 10575 10581 10588 10606 10614 10619 10645 10644 10653 10664 10672 10672 10681 10681 10692 10699 10711 10720 10721 10721 10713 10724 10720 10714 10711 10711 10703 10696
10413 10401 10392 10389 10388 10390 10394 10404 10423 10443 10478 10475 10486 10490 10533 10543 10551 10557 10570 10581 10589 10599 10616 10626 10633 10642 10654 10651 10663 10663 10677 10686 10695 10703 10711 10705 10710 10710 10716 10710 10705 10703 10703 10697 10691
10383 10374 10366 10358 10362 10359 10362 10372 10385 10413 10429 10434 10465 10482 10506 10519 10525 10534 10541 10569 10585 10599 10618 10621 10628 10635 10637 10645 10653 10661 10667 10681 10687 10693 10698 10689 10703 10705 10708 10704 10699 10697 10697 10689 10684
10360 10350 10342 10337 10337 10336 10341 10351 10366 10378 10384 10416 10435 10454 10472 10486 10498 10520 10539 10559 10575 10581 10588 10605 10613 10623 10631 10633 10640 10647 10654 10668 10674 10677 10682 10687 10699 10699 10699 10695 10692 10691 10688 10683 10680
10339 10330 10322 10319 10318 10318 10323 10332 10337 10345 10369 10390 10403 10428 10443 10458 10482 10508 10524 10534 10552 10560 10572 10586 10601 10602 10609 10615 10622 10637 10652 10653 10659 10666 10677 10688 10687 10692 10691 10687 10686 10687 10682 10680 10676
10321 10313 10306 10302 10301 10302 10306 10312 10319 10332 10349 10354 10363 10388 10414 10431 10458 10486 10497 10516 10529 10533 10548 10565 10578 10588 10593 10605 10618 10630 10635 10638 10655 10667 10675 10677 10681 10683 10682 10679 10681 10680 10679 10675 10672
10306 10297 10291 10288 10288 10288 10292 10298 10305 10318 10329 10337 10350 10368 10396 10416 10440 10460 10477 10492 10507 10521 10539 10556 10567 10575 10584 10612 10614 10622 10637 10645 10652 10661 10666 10671 10671 10675 10675 10672 10676 10676 10675 10671 10668
10291 10282 10278 10275 10276 10276 10280 10285 10292 10301 10306 10315 10333 10354 10381 10401 10418 10443 10458 10474 10497 10514 10528 10541 10555 10566 10589 10592 10598 10612 10623 10630 10640 10650 10657 10662 10664 10669 10667 10666 10670 10671 10671 10668 10666
10278 10270 10266 10264 10264 10264 10268 10273 10279 10282 10289 10301 10313 10327 10353 10380 10401 10421 10441 10465 10482 10497 10514 10525 10549 10550 10570 10582 10596 10614 10630 10636 10640 10645 10651 10655 10658 10660 10658 10662 10665 10668 10668 10666 10663
10267 10261 10254 10254 10253 10254 10258 10262 10266 10269 10277 10288 10299 10316 10332 10356 10379 10402 10424 10449 10464 10486 10502 10518 10538 10551 10574 10588 10593 10605 10615 10625 10630 10638 10639 10645 10650 10649 10653 10656 10662 10665 10665 10664 10661
10259 10253 10247 10245 10244 10246 10249 10254 10259 10263 10269 10280 10291 10301 10318 10340 10365 10385 10407 10432 10449 10471 10489 10512 10530 10543 10556 10568 10577 10589 10599 10609 10620 10625 10632 10629 10639 10642 10646 10652 10659 10661 10662 10660 10659
10254 10248 10243 10240 10237 10239 10243 10247 10251 10256 10261 10271 10282 10294 10308 10324 10349 10366 10391 10416 10433 10455 10476 10500 10514 10533 10544 10556 10570 10582 10590 10604 10611 10616 10619 10623 10633 10638 10643 10650 10655 10657 10658 10657 10657
10251 10244 10239 10237 10235 10233 10237 10241 10245 10250 10257 10264 10275 10284 10297 10311 10332 10350 10373 10398 10415 10438 10462 10486 10504 10523 10535 10544 10555 10566 10591 10601 10607 10609 10614 10625 10631 10635 10641 10645 10650 10652 10654 10655 10653